C/2019 F1 ( ATLAS-Africano )

Japanese version
Home page
Updated on June 8, 2019

---------------------------------------------------------------------

* Profile

Discovery Date March 28 and 29, 2019
Magnitude 18.3 mag, 18.4 mag
Discoverer Asteroid Terrestrial-Impact Last Alert System (ATLAS) search program, B. M. Africano (Mount Lemmon Survey)

* Pictures

* Orbital Elements

Epoch 2021 July 5.0 TT = JDT 2459400.5
T 2021 June 22.95866 TT                                 MPCW
q   3.5959270            (2000.0)            P               Q
z  -0.0009739      Peri.  251.13363     +0.09424074     +0.85665081
 +/-0.0000267      Node    38.72535     -0.27688306     +0.51193584
e   1.0035020      Incl.   54.17249     -0.95627112     -0.06380508
From 482 observations 2019 Feb. 8-May 31, mean residual 0".4.

* Finding Charts

* Magnitudes Graph

        m1 = 5.0 + 5 log d + 10.0 log r

---------------------------------------------------------------------

The orbital elements are published on M.P.E.C. 2019-L24.
The charts are made with StellaNavigator Ver.10 (AstroArts).
The magnitudes graphs are made with Comet for Windows.

---------------------------------------------------------------------

Copyright(C) Seiichi Yoshida (comet@aerith.net). All rights reserved.